Tracking 19562 objects as of 22-Mar-2019
HD Live streaming from Space Station
objects crossing your sky now

COSMOS 1150

Track COSMOS 1150 now!
10-day predictions
COSMOS 1150 is classified as:


NORAD ID: 11667
Int'l Code: 1980-003A
Perigee: 969.7 km
Apogee: 1,019.0 km
Inclination: 83.0 °
Period: 104.8 minutes
Semi major axis: 7365 km
RCS: 2.2107 m2 (large)
Launch date: January 14, 1980
Source: Commonwealth of Independent States (former USSR) (CIS)
Launch site: PLESETSK MISSILE AND SPACE COMPLEX (PKMTR)
aabbcc
Your satellite tracking list
Your tracking list is empty




NASA's NSSDC Master Catalog

Two Line Element Set (TLE):
1 11667U 80003A   19080.79055472 +.00000066 +00000-0 +54569-4 0  9994
2 11667 082.9571 329.1877 0033477 084.7829 341.2315 13.73459207963709
Source of the keplerian elements: AFSPC